When you browse on this site, cookies collect data to enhance your experience and personalize the content and advertising you see.
Visit our Privacy Policy to learn more. By continuing to use the site, you agree to this use of cookies and data.
  • In Hungary
  • List of Countries
  • For 7 days
  • Water Temperature
  • Satellite Maps
  • Weather Map
  • News
  • Weather Widgets
  • user-avatar
    Login

    Hourly Weather Senden

    Today, 19 June, Wednesday

    Time Temperature Precipitation Wind Pressure Humidity
    00:00 +18°C° 0.5 mm 2 mps 717 mmHg 85%
    01:00 +18°C° 0 mm 2 mps 716 mmHg 84%
    02:00 +18°C° 0 mm 2 mps 716 mmHg 85%
    03:00 +17°C° 0 mm 2 mps 716 mmHg 85%
    04:00 +17°C° 0 mm 2 mps 716 mmHg 86%
    05:00 +18°C° 0 mm 2 mps 716 mmHg 85%
    06:00 +19°C° 0 mm 2 mps 716 mmHg 84%
    07:00 +20°C° 0 mm 2 mps 716 mmHg 83%
    08:00 +21°C° 0 mm 2 mps 716 mmHg 79%
    09:00 +24°C° 0 mm 3 mps 716 mmHg 75%
    10:00 +25°C° 0 mm 3 mps 716 mmHg 71%
    11:00 +26°C° 0.1 mm 2 mps 716 mmHg 65%
    12:00 +27°C° 0.1 mm 2 mps 716 mmHg 58%
    13:00 +28°C° 0 mm 2 mps 716 mmHg 52%
    14:00 +29°C° 0 mm 1 mps 716 mmHg 51%
    15:00 +29°C° 0 mm 1 mps 715 mmHg 50%
    16:00 +29°C° 0 mm 1 mps 715 mmHg 49%
    17:00 +26°C° 0.2 mm 2 mps 715 mmHg 59%
    18:00 +24°C° 0.2 mm 3 mps 714 mmHg 68%
    19:00 +20°C° 0.2 mm 4 mps 714 mmHg 78%
    20:00 +19°C° 0.2 mm 3 mps 714 mmHg 77%
    21:00 +18°C° 0.2 mm 3 mps 714 mmHg 77%
    22:00 +17°C° 0.2 mm 2 mps 715 mmHg 77%
    23:00 +17°C° 0.8 mm 2 mps 715 mmHg 81%

    Tomorrow, 20 June, Thursday

    Time Temperature Precipitation Wind Pressure Humidity
    00:00 +17°C° 0.8 mm 3 mps 715 mmHg 84%
    01:00 +16°C° 0.8 mm 3 mps 715 mmHg 88%
    02:00 +16°C° 0.4 mm 3 mps 715 mmHg 89%
    03:00 +16°C° 0.4 mm 2 mps 715 mmHg 90%
    04:00 +16°C° 0.4 mm 2 mps 716 mmHg 91%
    05:00 +17°C° 0.1 mm 2 mps 716 mmHg 92%
    06:00 +17°C° 0.1 mm 2 mps 716 mmHg 92%
    07:00 +18°C° 0.1 mm 3 mps 716 mmHg 92%
    08:00 +18°C° 0.6 mm 2 mps 716 mmHg 91%
    09:00 +19°C° 0.6 mm 2 mps 716 mmHg 91%
    10:00 +19°C° 0.6 mm 2 mps 716 mmHg 90%
    11:00 +19°C° 1.3 mm 2 mps 717 mmHg 91%
    12:00 +18°C° 1.3 mm 2 mps 717 mmHg 92%
    13:00 +19°C° 1.3 mm 1 mps 717 mmHg 93%
    14:00 +18°C° 0.4 mm 2 mps 717 mmHg 92%
    15:00 +18°C° 0.4 mm 2 mps 717 mmHg 91%
    16:00 +18°C° 0.4 mm 3 mps 717 mmHg 90%
    17:00 +19°C° 0.3 mm 2 mps 717 mmHg 90%
    18:00 +19°C° 0.3 mm 2 mps 717 mmHg 90%
    19:00 +20°C° 0.3 mm 1 mps 718 mmHg 89%
    20:00 +19°C° 0.3 mm 1 mps 718 mmHg 90%
    21:00 +18°C° 0.3 mm 1 mps 718 mmHg 91%
    22:00 +16°C° 0.3 mm 1 mps 718 mmHg 91%
    23:00 +15°C° 0 mm 1 mps 718 mmHg 92%

    Day after tomorrow, 21 June, Friday

    Time Temperature Precipitation Wind Pressure Humidity
    00:00 +15°C° 0 mm 1 mps 718 mmHg 92%
    01:00 +15°C° 0 mm 1 mps 718 mmHg 92%
    02:00 +14°C° 0 mm 1 mps 718 mmHg 93%
    03:00 +13°C° 0 mm 0 mps 718 mmHg 93%
    04:00 +12°C° 0 mm 0 mps 718 mmHg 93%
    05:00 +15°C° 0 mm 1 mps 718 mmHg 92%
    06:00 +16°C° 0 mm 1 mps 719 mmHg 90%
    07:00 +18°C° 0 mm 1 mps 719 mmHg 89%
    08:00 +19°C° 0 mm 1 mps 719 mmHg 85%
    09:00 +20°C° 0 mm 1 mps 719 mmHg 82%
    10:00 +21°C° 0 mm 1 mps 719 mmHg 78%
    11:00 +21°C° 0.4 mm 2 mps 719 mmHg 77%
    12:00 +21°C° 0.4 mm 2 mps 719 mmHg 77%
    13:00 +23°C° 0.4 mm 2 mps 719 mmHg 76%
    14:00 +22°C° 0.4 mm 3 mps 719 mmHg 76%
    15:00 +22°C° 0.4 mm 3 mps 719 mmHg 77%
    16:00 +22°C° 0.4 mm 3 mps 719 mmHg 77%
    17:00 +21°C° 0.2 mm 3 mps 719 mmHg 81%
    18:00 +20°C° 0.2 mm 2 mps 719 mmHg 85%
    19:00 +20°C° 0.2 mm 2 mps 719 mmHg 89%
    20:00 +19°C° 0.3 mm 2 mps 719 mmHg 91%
    21:00 +17°C° 0.3 mm 2 mps 719 mmHg 92%
    22:00 +16°C° 0.3 mm 3 mps 719 mmHg 93%
    23:00 +16°C° 0.1 mm 3 mps 719 mmHg 94%

    22 June, Saturday

    Time Temperature Precipitation Wind Pressure Humidity
    00:00 +14°C° 0.1 mm 3 mps 719 mmHg 94%
    01:00 +14°C° 0.1 mm 3 mps 719 mmHg 94%
    02:00 +14°C° 0 mm 3 mps 718 mmHg 95%
    03:00 +13°C° 0 mm 3 mps 718 mmHg 95%
    04:00 +13°C° 0 mm 3 mps 718 mmHg 95%
    05:00 +14°C° 0 mm 3 mps 718 mmHg 94%
    06:00 +16°C° 0 mm 3 mps 718 mmHg 94%
    07:00 +17°C° 0 mm 4 mps 718 mmHg 93%
    08:00 +17°C° 0.1 mm 4 mps 718 mmHg 92%
    09:00 +17°C° 0.1 mm 4 mps 718 mmHg 91%
    10:00 +17°C° 0.1 mm 4 mps 718 mmHg 90%
    11:00 +17°C° 0.6 mm 4 mps 718 mmHg 92%
    12:00 +17°C° 0.6 mm 4 mps 718 mmHg 93%
    13:00 +15°C° 0.6 mm 4 mps 718 mmHg 95%
    14:00 +15°C° 0.2 mm 4 mps 718 mmHg 95%
    15:00 +16°C° 0.2 mm 3 mps 718 mmHg 95%
    16:00 +16°C° 0.2 mm 3 mps 718 mmHg 96%
    17:00 +16°C° 0.1 mm 3 mps 718 mmHg 96%
    18:00 +16°C° 0.1 mm 2 mps 718 mmHg 97%
    19:00 +16°C° 0.1 mm 2 mps 718 mmHg 97%
    20:00 +16°C° 0.4 mm 2 mps 719 mmHg 97%
    21:00 +16°C° 0.4 mm 2 mps 719 mmHg 97%
    22:00 +16°C° 0.4 mm 2 mps 719 mmHg 97%
    23:00 +15°C° 0.8 mm 2 mps 719 mmHg 97%

    23 June, Sunday

    Time Temperature Precipitation Wind Pressure Humidity
    00:00 +15°C° 0.8 mm 2 mps 719 mmHg 97%
    01:00 +15°C° 0.8 mm 2 mps 719 mmHg 97%
    02:00 +15°C° 0 mm 2 mps 719 mmHg 97%
    03:00 +15°C° 0 mm 2 mps 719 mmHg 97%
    04:00 +15°C° 0 mm 2 mps 719 mmHg 98%
    05:00 +15°C° 0 mm 2 mps 719 mmHg 98%
    06:00 +15°C° 0 mm 2 mps 719 mmHg 98%
    07:00 +16°C° 0 mm 2 mps 720 mmHg 97%
    08:00 +17°C° 0 mm 3 mps 720 mmHg 95%
    09:00 +18°C° 0 mm 3 mps 720 mmHg 93%
    10:00 +19°C° 0 mm 3 mps 720 mmHg 90%
    11:00 +20°C° 0 mm 3 mps 720 mmHg 85%
    12:00 +21°C° 0 mm 3 mps 720 mmHg 81%
    13:00 +23°C° 0 mm 4 mps 720 mmHg 76%
    14:00 +23°C° 0 mm 4 mps 720 mmHg 75%
    15:00 +23°C° 0 mm 4 mps 720 mmHg 75%
    16:00 +25°C° 0 mm 4 mps 720 mmHg 74%
    17:00 +23°C° 0 mm 4 mps 720 mmHg 78%
    18:00 +22°C° 0 mm 4 mps 720 mmHg 82%
    19:00 +22°C° 0 mm 3 mps 720 mmHg 86%
    20:00 +20°C° 0 mm 3 mps 720 mmHg 89%
    21:00 +19°C° 0 mm 3 mps 721 mmHg 92%
    22:00 +18°C° 0 mm 3 mps 721 mmHg 96%
    23:00 +17°C° 0 mm 3 mps 721 mmHg 96%

    24 June, Monday

    Time Temperature Precipitation Wind Pressure Humidity
    00:00 +16°C° 0 mm 3 mps 721 mmHg 97%
    01:00 +16°C° 0 mm 3 mps 721 mmHg 97%
    02:00 +16°C° 0 mm 3 mps 721 mmHg 97%
    03:00 +14°C° 0 mm 3 mps 721 mmHg 98%
    04:00 +14°C° 0 mm 3 mps 721 mmHg 98%
    05:00 +14°C° 0 mm 3 mps 721 mmHg 97%
    06:00 +16°C° 0 mm 3 mps 721 mmHg 96%
    07:00 +17°C° 0 mm 4 mps 721 mmHg 95%
    08:00 +18°C° 0 mm 4 mps 721 mmHg 93%
    09:00 +19°C° 0 mm 4 mps 721 mmHg 90%
    10:00 +20°C° 0 mm 4 mps 721 mmHg 88%
    11:00 +22°C° 0 mm 4 mps 721 mmHg 83%
    12:00 +25°C° 0 mm 4 mps 721 mmHg 79%
    13:00 +26°C° 0 mm 4 mps 721 mmHg 75%
    14:00 +27°C° 0 mm 4 mps 721 mmHg 75%
    15:00 +27°C° 0 mm 4 mps 721 mmHg 74%
    16:00 +27°C° 0 mm 5 mps 721 mmHg 74%
    17:00 +26°C° 0 mm 4 mps 721 mmHg 77%
    18:00 +25°C° 0 mm 4 mps 721 mmHg 81%
    19:00 +23°C° 0 mm 4 mps 721 mmHg 84%
    20:00 +21°C° 0 mm 3 mps 722 mmHg 86%
    21:00 +20°C° 0 mm 3 mps 722 mmHg 89%
    22:00 +18°C° 0 mm 3 mps 722 mmHg 91%
    23:00 +18°C° 0 mm 3 mps 722 mmHg 92%
    Show more